TimePDT,TemperatureF,Dew PointF,Humidity,Sea Level PressureIn,VisibilityMPH,Wind Direction,Wind SpeedMPH,Gust SpeedMPH,PrecipitationIn,Events,Conditions,WindDirDegrees,DateUTC
12:53 AM,57.9,51.1,78,30.06,10.0,South,5.8,-,N/A,,Clear,170,2013-06-05 07:53:00
1:53 AM,57.0,48.9,74,30.05,10.0,South,3.5,-,N/A,,Clear,180,2013-06-05 08:53:00
2:53 AM,55.9,48.9,77,30.04,10.0,SSW,3.5,-,N/A,,Clear,200,2013-06-05 09:53:00
3:53 AM,57.0,50.0,77,30.05,10.0,South,4.6,-,N/A,,Clear,190,2013-06-05 10:53:00
4:53 AM,57.9,51.1,78,30.05,10.0,South,5.8,-,N/A,,Clear,180,2013-06-05 11:53:00
5:53 AM,57.0,52.0,83,30.05,10.0,South,8.1,-,N/A,,Mostly Cloudy,180,2013-06-05 12:53:00
6:53 AM,57.0,52.0,83,30.07,10.0,South,6.9,-,N/A,,Mostly Cloudy,180,2013-06-05 13:53:00
7:53 AM,57.9,53.1,84,30.08,10.0,South,10.4,17.3,N/A,,Overcast,170,2013-06-05 14:53:00
8:53 AM,59.0,53.1,81,30.10,10.0,South,8.1,-,N/A,,Overcast,170,2013-06-05 15:53:00
9:53 AM,60.1,54.0,80,30.10,10.0,South,6.9,16.1,N/A,,Overcast,180,2013-06-05 16:53:00
10:53 AM,62.1,55.0,78,30.11,10.0,South,8.1,-,N/A,,Scattered Clouds,190,2013-06-05 17:53:00
11:53 AM,64.0,55.0,73,30.12,10.0,South,10.4,-,N/A,,Partly Cloudy,180,2013-06-05 18:53:00
12:53 PM,66.9,52.0,59,30.12,10.0,South,8.1,-,N/A,,Scattered Clouds,170,2013-06-05 19:53:00
1:53 PM,69.1,53.1,57,30.12,10.0,South,8.1,-,N/A,,Clear,190,2013-06-05 20:53:00
2:53 PM,69.1,54.0,58,30.11,10.0,Variable,4.6,-,N/A,,Clear,0,2013-06-05 21:53:00
3:53 PM,70.0,52.0,53,30.10,10.0,Variable,4.6,-,N/A,,Clear,0,2013-06-05 22:53:00
4:53 PM,69.1,50.0,51,30.09,10.0,West,5.8,-,N/A,,Clear,270,2013-06-05 23:53:00
5:53 PM,69.1,55.0,61,30.09,10.0,Variable,4.6,-,N/A,,Clear,0,2013-06-06 00:53:00
6:53 PM,69.1,55.9,63,30.07,10.0,Calm,Calm,-,N/A,,Clear,0,2013-06-06 01:53:00
7:53 PM,66.0,55.9,70,30.07,10.0,Calm,Calm,-,N/A,,Clear,0,2013-06-06 02:53:00
8:53 PM,62.1,57.0,84,30.07,10.0,Calm,Calm,-,N/A,,Clear,0,2013-06-06 03:53:00
9:53 PM,59.0,55.9,90,30.08,10.0,Calm,Calm,-,N/A,,Clear,0,2013-06-06 04:53:00
10:53 PM,57.9,55.0,90,30.07,10.0,Calm,Calm,-,N/A,,Clear,0,2013-06-06 05:53:00
11:53 PM,55.9,54.0,93,30.07,10.0,Calm,Calm,-,N/A,,Clear,0,2013-06-06 06:53:00